Tracking 18844 objects as of 21-Nov-2017
HD Live streaming from Space Station
objects crossing your sky now

FENGYUN 1C DEB

Track FENGYUN 1C DEB now!
10-day predictions


NORAD ID: 31025
Int'l Code: 1999-025BDT
Perigee: 716.8 km
Apogee: 985.2 km
Inclination: 98.8 °
Period: 101.8 minutes
Semi major axis: 7221 km
RCS: 0.0116 m2 (small)
Launch date: May 10, 1999
Source: People's Republic of China (PRC)
Launch site: Taiyaun Space Center, China (TSC)

Note: This is SATELLITE DEBRIS
aabbcc
Your satellite tracking list
Your tracking list is empty




NASA's NSSDC Master Catalog

Two Line Element Set (TLE):
1 31025U 99025BDT 17324.36493807  .00000263  00000-0  13528-3 0  9996
2 31025  98.7516   7.5512 0185848 189.6711 170.0865 14.14550916551190
Source of the keplerian elements: AFSPC